Regional Weather Roundup
Issued by NWS Goodland, KS

Home | Current Version | Previous Version | Graphics & Text | Print | Product List | Glossary On
Versions: 1 2 3 4 5 6 7 8 9 10 11 12 13 14 15 16 17 18 19 20 21 22 23 24 25 26 27 28 29 30 31 32 33 34 35 36 37 38 39 40 41 42 43 44 45 46 47 48 49 50
000
ASUS43 KGLD 180459
RWRGLD

GOODLAND FORECAST AREA HOURLY WEATHER ROUNDUP
NATIONAL WEATHER SERVICE GOODLAND KS
1000 PM MST WED DEC 17 2014

...OFFICIAL OBSERVATIONS...

CITY           SKY/WX    TMP DP  RH WIND       PRES   REMARKS
GOODLAND KS    LGT SNOW  24  23  96 E5        30.06R FOG
HILL CITY KS   CLOUDY    26  24  92 E8        30.14S FOG
IMPERIAL NEB   CLOUDY    24  21  88 S6        30.08S FOG
MCCOOK NEB     CLOUDY    25  23  92 SE7       30.13R FOG
AKRON CO       FOG       22  21  96 S8        29.99S VSB 1/2
BURLINGTON CO  LGT SNOW  25  22  88 SE5       30.03R VSB 3/4
LIMON CO       CLOUDY    20  19  96 E3        29.99R
$$

...UNOFFICIAL OBSERVATIONS...

CITY           SKY/WX    TMP DP  RH WIND       PRES   REMARKS
GOVE KS          N/A     28  32 100 MISG        N/A
SHARON SPRINGS   N/A     26  25  95 CALM        N/A
TRIBUNE KS     CLOUDY    28  28 100 N8        30.06R VSB 1
KIT CARSON CO    N/A     25  23  92 MISG        N/A
$$


USA.gov is the U.S. government's official web portal to all federal, state and local government web resources and services.